EDT,Max TemperatureF,Mean TemperatureF,Min TemperatureF,Max Dew PointF,MeanDew PointF,Min DewpointF,Max Humidity, Mean Humidity, Min Humidity, Max Sea Level PressureIn, Mean Sea Level PressureIn, Min Sea Level PressureIn, Max VisibilityMiles, Mean VisibilityMiles, Min VisibilityMiles, Max Wind SpeedMPH, Mean Wind SpeedMPH, Max Gust SpeedMPH,PrecipitationIn, CloudCover, Events, WindDirDegrees
2012-9-1,93,84,75,77,74,69,100,73,46,30.20,30.14,30.06,10,6,0,10,2,13,0.00,4,Fog,67
2012-9-2,90,81,72,77,73,71,94,77,59,30.10,30.06,29.99,10,9,1,15,2,18,0.29,3,Rain,269
2012-9-3,90,82,73,74,72,69,94,73,52,30.07,30.03,29.98,10,10,7,16,3,22,0.00,2,,254
2012-9-4,91,82,73,75,72,66,93,69,44,30.03,29.99,29.94,10,10,5,13,3,16,0.01,4,Rain,209
2012-9-5,91,81,71,73,69,65,94,69,44,29.99,29.95,29.91,10,9,4,14,5,17,0.00,1,,208
2012-9-6,89,80,71,74,71,69,94,75,55,30.01,29.98,29.94,10,10,10,20,4,24,0.00,1,,217
2012-9-7,90,81,72,75,73,71,100,81,61,30.00,29.95,29.91,10,8,0,8,4,23,1.76,3,Fog-Rain,201
2012-9-8,90,81,72,74,72,70,100,76,52,29.95,29.89,29.83,10,8,2,22,8,30,0.21,4,Rain,198
2012-9-9,87,81,75,76,75,73,94,84,74,29.95,29.86,29.80,10,8,1,15,5,23,0.80,6,Rain-Thunderstorm,229
2012-9-10,90,81,71,71,67,62,90,67,43,30.07,30.00,29.94,10,10,10,17,5,20,0.00,3,,36
2012-9-11,87,79,70,68,64,59,84,63,42,30.17,30.12,30.06,10,10,10,18,7,23,0.00,3,,61
2012-9-12,88,79,70,71,68,64,90,69,48,30.19,30.15,30.11,10,10,10,20,7,26,0.02,4,Rain,44
2012-9-13,89,80,70,72,69,67,93,72,50,30.17,30.13,30.07,10,10,10,21,8,26,T,3,,36
2012-9-14,89,80,71,73,70,68,93,73,53,30.12,30.08,30.04,10,10,10,15,6,23,T,4,,43
2012-9-15,89,80,71,73,71,67,93,72,50,30.13,30.08,30.04,10,10,10,21,6,23,T,3,,53
2012-9-16,89,81,72,74,72,68,94,74,53,30.09,30.04,29.99,10,10,7,15,3,20,0.01,3,Rain,101
2012-9-17,89,80,70,74,71,68,100,78,55,30.04,29.97,29.89,10,10,10,18,5,25,0.00,2,Thunderstorm,143
2012-9-18,79,75,71,75,72,69,94,90,85,29.97,29.90,29.84,10,7,0,22,5,35,1.53,5,Fog-Rain-Thunderstorm,189
2012-9-19,87,79,70,73,71,68,100,77,53,30.04,29.96,29.89,10,8,1,13,3,16,T,3,Rain-Thunderstorm,291
2012-9-20,87,78,69,74,71,66,100,78,55,30.06,30.02,29.97,10,7,0,32,3,40,1.63,5,Fog-Rain-Thunderstorm,67
2012-9-21,87,79,71,73,70,68,93,75,57,30.04,30.02,29.94,10,7,0,14,3,20,T,5,Fog-Rain,49
2012-9-22,90,80,70,73,69,63,93,67,41,30.06,30.01,29.96,10,10,4,12,3,16,0.00,1,,47
2012-9-23,90,76,61,72,64,53,97,70,42,30.11,30.06,30.01,10,10,9,12,4,16,0.00,0,,326
2012-9-24,86,72,58,62,57,52,93,63,32,30.14,30.09,30.05,10,10,10,9,3,14,0.00,0,,13
2012-9-25,85,77,69,70,66,62,84,70,55,30.14,30.11,30.08,10,10,10,20,9,22,0.00,5,,41
2012-9-26,90,79,68,73,68,64,93,69,44,30.15,30.11,30.06,10,10,10,13,5,16,0.00,2,,66
2012-9-27,91,81,70,75,71,67,100,74,47,30.17,30.11,30.04,10,7,0,13,3,18,T,4,Fog-Rain,38
2012-9-28,90,80,69,73,70,67,97,76,55,30.09,30.04,29.97,10,10,9,15,4,20,0.00,1,,73
2012-9-29,89,79,68,74,68,63,100,72,43,30.01,29.97,29.86,10,6,0,9,2,17,0.00,3,Fog,115
2012-9-30,90,81,71,74,71,68,94,73,52,29.93,29.85,29.77,10,10,9,14,3,17,T,2,,183